| time (UTC) | temp C | wind direction | speed KPH | gust KPH | rain 1hr cm | rain 24hr cm | rain mn cm | humidity % | barometer mb |
| 20260510164610 | 25 | 0 | 0.0 | 8.0 | 0.00 | 2.03 | 0.00 | 64 | 1017.1 |
| 20260510164056 | 25 | 116 | 1.6 | 9.7 | 0.00 | 2.03 | 0.00 | 65 | 1017.2 |
| 20260510163558 | 24 | 0 | 1.6 | 9.7 | 0.00 | 2.03 | 0.00 | 66 | 1017.3 |
| 20260510163057 | 24 | 123 | 0.0 | 8.0 | 0.00 | 2.03 | 0.00 | 68 | 1017.4 |
| 20260510162557 | 23 | 91 | 0.0 | 8.0 | 0.00 | 2.03 | 0.00 | 70 | 1017.3 |
| 20260510162057 | 23 | 0 | 1.6 | 8.0 | 0.00 | 2.03 | 0.00 | 71 | 1017.3 |
| 20260510161558 | 23 | 0 | 0.0 | 3.2 | 0.00 | 2.03 | 0.00 | 72 | 1017.2 |
| 20260510161057 | 23 | 0 | 0.0 | 11.3 | 0.00 | 2.03 | 0.00 | 72 | 1017.3 |
| 20260510160559 | 23 | 101 | 0.0 | 11.3 | 0.00 | 2.03 | 0.00 | 72 | 1017.2 |
| 20260510160059 | 22 | 119 | 1.6 | 11.3 | 0.00 | 2.03 | 0.00 | 73 | 1017.2 |
| 20260510155558 | 22 | 70 | 0.0 | 6.4 | 0.00 | 2.49 | 0.00 | 73 | 1017.1 |
| 20260510155057 | 22 | 0 | 0.0 | 6.4 | 0.00 | 2.49 | 0.00 | 73 | 1017.1 |
| 20260510154559 | 22 | 0 | 0.0 | 6.4 | 0.00 | 2.49 | 0.00 | 73 | 1016.8 |
| 20260510154057 | 22 | 109 | 0.0 | 6.4 | 0.00 | 2.49 | 0.00 | 73 | 1016.9 |
| 20260510153556 | 22 | 0 | 1.6 | 6.4 | 0.00 | 2.49 | 0.00 | 73 | 1016.9 |
| 20260510153055 | 22 | 0 | 0.0 | 9.7 | 0.00 | 2.49 | 0.00 | 73 | 1017.1 |
| 20260510152557 | 22 | 106 | 0.0 | 9.7 | 0.00 | 2.49 | 0.00 | 73 | 1017.1 |
| 20260510152057 | 21 | 86 | 3.2 | 9.7 | 0.00 | 2.49 | 0.00 | 73 | 1017.1 |
| 20260510151557 | 21 | 94 | 1.6 | 9.7 | 0.00 | 2.49 | 0.00 | 73 | 1017.0 |
| 20260510151056 | 21 | 98 | 1.6 | 4.8 | 0.00 | 2.49 | 0.00 | 73 | 1017.1 |
| 20260510150558 | 21 | 0 | 0.0 | 4.8 | 0.00 | 2.49 | 0.00 | 73 | 1017.2 |
| 20260510150122 | 21 | 0 | 1.6 | 6.4 | 0.00 | 2.49 | 0.00 | 73 | 1017.3 |
| 20260510145600 | 21 | 0 | 0.0 | 9.7 | 0.00 | 2.95 | 0.00 | 73 | 1017.3 |
| 20260510145056 | 21 | 87 | 3.2 | 9.7 | 0.00 | 2.95 | 0.00 | 73 | 1017.4 |
| 20260510144615 | 21 | 0 | 0.0 | 6.4 | 0.00 | 2.95 | 0.00 | 73 | 1017.4 |
| 20260510144058 | 20 | 0 | 0.0 | 11.3 | 0.00 | 2.95 | 0.00 | 73 | 1017.4 |
| 20260510143555 | 20 | 0 | 1.6 | 11.3 | 0.00 | 2.95 | 0.00 | 73 | 1017.4 |
| 20260510143057 | 21 | 80 | 0.0 | 6.4 | 0.00 | 2.95 | 0.00 | 73 | 1017.4 |
| 20260510142557 | 21 | 0 | 0.0 | 4.8 | 0.00 | 2.95 | 0.00 | 73 | 1017.5 |
| 20260510142057 | 20 | 0 | 1.6 | 4.8 | 0.00 | 2.95 | 0.00 | 73 | 1017.4 |
| 20260510141603 | 20 | 0 | 0.0 | 6.4 | 0.00 | 2.95 | 0.00 | 73 | 1017.3 |
| 20260510141138 | 20 | 0 | 0.0 | 6.4 | 0.00 | 2.95 | 0.00 | 73 | 1017.3 |
| 20260510140557 | 20 | 101 | 0.0 | 6.4 | 0.00 | 2.95 | 0.00 | 73 | 1017.3 |
| 20260510140054 | 20 | 0 | 0.0 | 6.4 | 0.00 | 2.95 | 0.00 | 73 | 1017.3 |
| 20260510135556 | 20 | 96 | 0.0 | 6.4 | 0.00 | 4.85 | 0.00 | 73 | 1017.3 |
| 20260510135057 | 20 | 111 | 1.6 | 6.4 | 0.00 | 4.85 | 0.00 | 73 | 1017.3 |
| 20260510134607 | 20 | 105 | 1.6 | 9.7 | 0.00 | 4.85 | 0.00 | 73 | 1017.3 |
| 20260510134056 | 20 | 107 | 1.6 | 9.7 | 0.00 | 4.85 | 0.00 | 73 | 1017.2 |
| 20260510133557 | 20 | 0 | 0.0 | 4.8 | 0.00 | 4.85 | 0.00 | 73 | 1017.3 |
| 20260510133056 | 20 | 352 | 1.6 | 6.4 | 0.00 | 4.85 | 0.00 | 73 | 1017.2 |
| 20260510132556 | 20 | 0 | 0.0 | 6.4 | 0.00 | 4.85 | 0.00 | 73 | 1017.1 |
| 20260510132059 | 19 | 0 | 0.0 | 0.0 | 0.00 | 4.85 | 0.00 | 73 | 1017.0 |
| 20260510131600 | 19 | 0 | 0.0 | 3.2 | 0.00 | 4.85 | 0.00 | 73 | 1017.0 |
| 20260510131057 | 19 | 0 | 0.0 | 3.2 | 0.00 | 4.85 | 0.00 | 73 | 1017.0 |
| 20260510130556 | 19 | 0 | 0.0 | 0.0 | 0.00 | 4.85 | 0.00 | 73 | 1016.8 |
| 20260510130058 | 19 | 0 | 0.0 | 0.0 | 0.00 | 4.85 | 0.00 | 73 | 1016.8 |
| 20260510125558 | 19 | 0 | 0.0 | 0.0 | 0.00 | 5.16 | 0.00 | 73 | 1016.7 |
| 20260510125056 | 19 | 0 | 0.0 | 0.0 | 0.00 | 5.16 | 0.00 | 73 | 1016.6 |
| 20260510124601 | 18 | 0 | 0.0 | 1.6 | 0.00 | 5.16 | 0.00 | 73 | 1016.7 |
| 20260510124057 | 18 | 0 | 0.0 | 1.6 | 0.00 | 5.16 | 0.00 | 73 | 1016.5 |
| 20260510123557 | 18 | 0 | 0.0 | 1.6 | 0.00 | 5.16 | 0.00 | 73 | 1016.5 |
| 20260510123058 | 18 | 0 | 0.0 | 3.2 | 0.00 | 5.16 | 0.00 | 73 | 1016.5 |
| 20260510122556 | 18 | 0 | 0.0 | 3.2 | 0.00 | 5.16 | 0.00 | 73 | 1016.5 |
| 20260510122056 | 18 | 0 | 0.0 | 3.2 | 0.00 | 5.16 | 0.00 | 73 | 1016.4 |
| 20260510121557 | 18 | 0 | 0.0 | 0.0 | 0.00 | 5.16 | 0.00 | 73 | 1016.4 |
| 20260510121102 | 18 | 0 | 0.0 | 0.0 | 0.00 | 5.16 | 0.00 | 73 | 1016.3 |
| 20260510120557 | 18 | 0 | 0.0 | 0.0 | 0.00 | 5.16 | 0.00 | 73 | 1016.2 |
| 20260510120054 | 18 | 0 | 0.0 | 0.0 | 0.00 | 5.16 | 0.00 | 73 | 1016.1 |
| 20260510115556 | 18 | 0 | 0.0 | 0.0 | 0.00 | 5.16 | 0.00 | 73 | 1016.0 |
| 20260510115056 | 18 | 0 | 0.0 | 0.0 | 0.00 | 5.16 | 0.00 | 73 | 1015.9 |
| 20260510114614 | 18 | 0 | 0.0 | 0.0 | 0.00 | 5.16 | 0.00 | 73 | 1015.7 |
| 20260510114056 | 18 | 0 | 0.0 | 3.2 | 0.00 | 5.16 | 0.00 | 73 | 1015.7 |
| 20260510113557 | 18 | 0 | 0.0 | 4.8 | 0.00 | 5.16 | 0.00 | 73 | 1015.6 |
| 20260510113100 | 18 | 106 | 0.0 | 4.8 | 0.00 | 5.16 | 0.00 | 73 | 1015.4 |
| 20260510112556 | 18 | 0 | 0.0 | 4.8 | 0.00 | 5.16 | 0.00 | 73 | 1015.4 |
| 20260510112057 | 18 | 271 | 0.0 | 4.8 | 0.00 | 5.16 | 0.00 | 73 | 1015.2 |
| 20260510111559 | 18 | 0 | 0.0 | 3.2 | 0.00 | 5.16 | 0.00 | 73 | 1015.1 |
| 20260510111056 | 18 | 0 | 0.0 | 0.0 | 0.00 | 5.16 | 0.00 | 73 | 1015.0 |
| 20260510110558 | 18 | 0 | 0.0 | 0.0 | 0.00 | 5.16 | 0.00 | 73 | 1014.9 |
| 20260510110056 | 18 | 0 | 0.0 | 0.0 | 0.00 | 5.16 | 0.00 | 73 | 1014.9 |
| 20260510105601 | 18 | 0 | 0.0 | 0.0 | 0.00 | 5.16 | 0.00 | 73 | 1014.8 |
| 20260510105058 | 18 | 0 | 0.0 | 0.0 | 0.00 | 5.16 | 0.00 | 73 | 1014.7 |
| 20260510104620 | 18 | 0 | 0.0 | 0.0 | 0.00 | 5.16 | 0.00 | 73 | 1014.5 |
| 20260510104058 | 18 | 0 | 0.0 | 0.0 | 0.00 | 5.16 | 0.00 | 73 | 1014.4 |
| 20260510103558 | 18 | 0 | 0.0 | 0.0 | 0.00 | 5.16 | 0.00 | 73 | 1014.4 |
| 20260510103059 | 18 | 0 | 0.0 | 0.0 | 0.00 | 5.16 | 0.00 | 73 | 1014.3 |
| 20260510102558 | 18 | 0 | 0.0 | 0.0 | 0.00 | 5.16 | 0.00 | 73 | 1014.1 |
| 20260510102101 | 18 | 0 | 0.0 | 0.0 | 0.00 | 5.16 | 0.00 | 73 | 1014.1 |
| 20260510101605 | 18 | 0 | 0.0 | 0.0 | 0.00 | 5.16 | 0.00 | 73 | 1013.9 |
| 20260510101058 | 18 | 0 | 0.0 | 0.0 | 0.00 | 5.16 | 0.00 | 73 | 1014.0 |
| 20260510100558 | 18 | 0 | 0.0 | 0.0 | 0.00 | 5.16 | 0.00 | 73 | 1014.0 |
| 20260510100104 | 18 | 0 | 0.0 | 0.0 | 0.00 | 5.16 | 0.00 | 73 | 1013.9 |
| 20260510095557 | 18 | 0 | 0.0 | 0.0 | 0.00 | 8.20 | 0.00 | 73 | 1013.9 |
| 20260510095058 | 18 | 0 | 0.0 | 0.0 | 0.00 | 8.20 | 0.00 | 73 | 1013.9 |
| 20260510094605 | 18 | 0 | 0.0 | 0.0 | 0.00 | 8.20 | 0.00 | 73 | 1013.9 |
| 20260510094058 | 18 | 0 | 0.0 | 0.0 | 0.00 | 8.20 | 0.00 | 73 | 1013.8 |
| 20260510093601 | 18 | 0 | 0.0 | 0.0 | 0.00 | 8.20 | 0.00 | 73 | 1013.9 |
| 20260510093103 | 18 | 0 | 0.0 | 0.0 | 0.00 | 8.20 | 0.00 | 73 | 1013.8 |
| 20260510092601 | 18 | 0 | 0.0 | 4.8 | 0.00 | 8.20 | 0.00 | 73 | 1013.8 |
| 20260510092058 | 18 | 0 | 0.0 | 6.4 | 0.00 | 8.20 | 0.00 | 73 | 1013.9 |
| 20260510091558 | 18 | 0 | 0.0 | 6.4 | 0.00 | 8.20 | 0.00 | 73 | 1013.7 |
| 20260510091058 | 18 | 0 | 0.0 | 4.8 | 0.00 | 8.20 | 0.00 | 73 | 1013.7 |
| 20260510090558 | 18 | 0 | 0.0 | 4.8 | 0.00 | 8.20 | 0.00 | 73 | 1013.7 |
| 20260510090056 | 18 | 0 | 0.0 | 0.0 | 0.00 | 8.20 | 0.00 | 73 | 1013.7 |
| 20260510085602 | 18 | 0 | 0.0 | 1.6 | 0.00 | 8.20 | 0.00 | 73 | 1013.6 |
| 20260510085058 | 18 | 0 | 0.0 | 1.6 | 0.00 | 8.20 | 0.00 | 73 | 1013.6 |
| 20260510084558 | 18 | 0 | 0.0 | 1.6 | 0.00 | 8.20 | 0.00 | 73 | 1013.6 |
| 20260510084058 | 18 | 0 | 0.0 | 0.0 | 0.00 | 8.20 | 0.00 | 73 | 1013.5 |
| 20260510083559 | 18 | 0 | 0.0 | 1.6 | 0.00 | 8.20 | 0.00 | 73 | 1013.5 |
| 20260510083100 | 18 | 0 | 0.0 | 1.6 | 0.00 | 8.20 | 0.00 | 73 | 1013.5 |
| 20260510082601 | 18 | 0 | 0.0 | 4.8 | 0.00 | 8.20 | 0.00 | 73 | 1013.5 |
| 20260510082058 | 18 | 0 | 0.0 | 4.8 | 0.00 | 8.20 | 0.00 | 73 | 1013.6 |
| 20260510081558 | 18 | 271 | 0.0 | 3.2 | 0.00 | 8.20 | 0.00 | 73 | 1013.4 |
| 20260510081059 | 18 | 0 | 0.0 | 3.2 | 0.00 | 8.20 | 0.00 | 73 | 1013.5 |
| 20260510080558 | 18 | 0 | 0.0 | 3.2 | 0.00 | 8.20 | 0.00 | 73 | 1013.5 |
| 20260510080101 | 18 | 271 | 0.0 | 6.4 | 0.00 | 8.20 | 0.00 | 73 | 1013.4 |
| 20260510075558 | 18 | 0 | 0.0 | 6.4 | 0.00 | 8.20 | 0.00 | 73 | 1013.4 |
| 20260510075058 | 18 | 0 | 0.0 | 0.0 | 0.00 | 8.20 | 0.00 | 73 | 1013.4 |
| 20260510074607 | 18 | 0 | 0.0 | 0.0 | 0.00 | 8.20 | 0.00 | 73 | 1013.4 |
| 20260510074100 | 18 | 0 | 0.0 | 3.2 | 0.00 | 8.20 | 0.00 | 73 | 1013.2 |
| 20260510073559 | 18 | 0 | 0.0 | 3.2 | 0.00 | 8.20 | 0.00 | 73 | 1013.1 |
| 20260510073100 | 19 | 271 | 0.0 | 3.2 | 0.00 | 8.20 | 0.00 | 73 | 1013.3 |
| 20260510072558 | 19 | 0 | 0.0 | 3.2 | 0.00 | 8.20 | 0.00 | 73 | 1013.3 |
| 20260510072058 | 19 | 0 | 0.0 | 3.2 | 0.00 | 8.20 | 0.00 | 73 | 1013.3 |
| 20260510071603 | 19 | 0 | 0.0 | 3.2 | 0.00 | 8.20 | 0.00 | 73 | 1013.3 |
| 20260510071058 | 19 | 0 | 0.0 | 0.0 | 0.00 | 8.20 | 0.00 | 73 | 1013.2 |
| 20260510070600 | 19 | 0 | 0.0 | 3.2 | 0.00 | 8.20 | 0.00 | 73 | 1013.2 |
| 20260510070109 | 19 | 0 | 0.0 | 3.2 | 0.00 | 8.20 | 0.00 | 73 | 1013.3 |
| 20260510065558 | 19 | 0 | 0.0 | 3.2 | 0.00 | 8.20 | 0.00 | 73 | 1013.3 |
| 20260510065058 | 19 | 271 | 0.0 | 3.2 | 0.00 | 8.20 | 0.00 | 73 | 1013.3 |
| 20260510064603 | 19 | 0 | 0.0 | 3.2 | 0.00 | 8.20 | 0.00 | 73 | 1013.3 |
| 20260510064057 | 19 | 0 | 0.0 | 1.6 | 0.00 | 8.20 | 0.00 | 73 | 1013.2 |
| 20260510063558 | 19 | 0 | 0.0 | 4.8 | 0.00 | 8.20 | 0.00 | 73 | 1013.2 |
| 20260510063102 | 19 | 0 | 0.0 | 4.8 | 0.00 | 8.20 | 0.00 | 73 | 1013.3 |
| 20260510062558 | 19 | 0 | 0.0 | 0.0 | 0.00 | 8.20 | 0.00 | 73 | 1013.4 |
| 20260510062058 | 19 | 0 | 0.0 | 1.6 | 0.00 | 8.20 | 0.00 | 73 | 1013.4 |
| 20260510061558 | 19 | 0 | 0.0 | 1.6 | 0.00 | 8.20 | 0.00 | 73 | 1013.5 |
| 20260510061059 | 19 | 0 | 0.0 | 1.6 | 0.00 | 8.20 | 0.00 | 73 | 1013.5 |
| 20260510060558 | 19 | 0 | 0.0 | 1.6 | 0.00 | 8.20 | 0.00 | 73 | 1013.6 |
| 20260510055558 | 19 | 0 | 0.0 | 6.4 | 0.00 | 8.20 | 0.00 | 73 | 1013.5 |
| 20260510055058 | 19 | 0 | 0.0 | 6.4 | 0.00 | 8.20 | 0.00 | 73 | 1013.6 |
| 20260510054601 | 19 | 0 | 0.0 | 0.0 | 0.00 | 8.20 | 0.00 | 73 | 1013.4 |
| 20260510054057 | 19 | 0 | 0.0 | 0.0 | 0.00 | 8.20 | 0.00 | 73 | 1013.5 |
| 20260510053602 | 19 | 0 | 0.0 | 0.0 | 0.00 | 8.20 | 0.00 | 73 | 1013.5 |
| 20260510053057 | 19 | 0 | 0.0 | 0.0 | 0.00 | 8.20 | 0.00 | 73 | 1013.5 |
| 20260510052558 | 19 | 0 | 0.0 | 0.0 | 0.00 | 8.20 | 0.00 | 73 | 1013.7 |
| 20260510052058 | 19 | 0 | 0.0 | 0.0 | 0.00 | 8.20 | 0.00 | 73 | 1013.6 |
| 20260510051558 | 19 | 0 | 0.0 | 0.0 | 0.00 | 8.20 | 0.00 | 73 | 1013.6 |
| 20260510051100 | 19 | 0 | 0.0 | 0.0 | 0.00 | 8.20 | 0.00 | 73 | 1013.8 |
| 20260510050557 | 19 | 0 | 0.0 | 0.0 | 0.00 | 8.20 | 0.00 | 73 | 1013.7 |
| 20260510050059 | 19 | 0 | 0.0 | 0.0 | 0.00 | 8.20 | 0.00 | 73 | 1013.5 |
| 20260510045601 | 19 | 0 | 0.0 | 0.0 | 0.00 | 8.20 | 8.20 | 73 | 1013.4 |
| 20260510045058 | 20 | 0 | 0.0 | 0.0 | 0.00 | 8.20 | 8.20 | 73 | 1013.5 |
| 20260510044611 | 20 | 0 | 0.0 | 0.0 | 0.00 | 8.20 | 8.20 | 73 | 1013.5 |
| 20260510044100 | 20 | 0 | 0.0 | 0.0 | 0.00 | 8.20 | 8.20 | 73 | 1013.7 |
| 20260510043558 | 20 | 0 | 0.0 | 0.0 | 0.00 | 8.20 | 8.20 | 73 | 1013.6 |
| 20260510043110 | 20 | 0 | 0.0 | 0.0 | 0.00 | 8.20 | 8.20 | 73 | 1013.7 |
| 20260510042558 | 20 | 0 | 0.0 | 0.0 | 0.00 | 8.20 | 8.20 | 73 | 1013.6 |
| 20260510042102 | 20 | 0 | 0.0 | 3.2 | 0.00 | 8.20 | 8.20 | 73 | 1013.6 |
| 20260510041607 | 20 | 0 | 0.0 | 3.2 | 0.00 | 8.20 | 8.20 | 73 | 1013.5 |
| 20260510041058 | 20 | 0 | 0.0 | 3.2 | 0.00 | 8.20 | 8.20 | 73 | 1013.4 |
| 20260510040558 | 20 | 0 | 0.0 | 0.0 | 0.00 | 8.20 | 8.20 | 73 | 1013.4 |
| 20260510040100 | 20 | 0 | 0.0 | 0.0 | 0.00 | 8.20 | 8.20 | 73 | 1013.8 |
| 20260510035558 | 20 | 0 | 0.0 | 0.0 | 0.00 | 8.20 | 8.20 | 73 | 1013.8 |
| 20260510035059 | 20 | 0 | 0.0 | 3.2 | 0.00 | 8.20 | 8.20 | 73 | 1013.9 |
| 20260510034559 | 20 | 0 | 0.0 | 3.2 | 0.00 | 8.20 | 8.20 | 73 | 1014.1 |
| 20260510034058 | 20 | 0 | 0.0 | 0.0 | 0.00 | 8.20 | 8.20 | 73 | 1014.3 |
| 20260510033601 | 20 | 0 | 0.0 | 0.0 | 0.00 | 8.20 | 8.20 | 73 | 1014.2 |
| 20260510033128 | 20 | 0 | 0.0 | 0.0 | 0.00 | 8.20 | 8.20 | 73 | 1014.1 |
| 20260510032603 | 20 | 0 | 0.0 | 0.0 | 0.00 | 8.20 | 8.20 | 73 | 1013.9 |
| 20260510032058 | 20 | 0 | 0.0 | 0.0 | 0.00 | 8.20 | 8.20 | 73 | 1014.1 |
| 20260510031621 | 20 | 0 | 0.0 | 0.0 | 0.00 | 8.20 | 8.20 | 73 | 1013.9 |
| 20260510031100 | 20 | 0 | 0.0 | 0.0 | 0.00 | 8.20 | 8.20 | 73 | 1013.9 |
| 20260510030557 | 20 | 0 | 0.0 | 0.0 | 0.00 | 8.20 | 8.20 | 73 | 1013.9 |
| 20260510025558 | 20 | 0 | 0.0 | 0.0 | 0.00 | 8.20 | 8.20 | 73 | 1014.1 |
| 20260510025058 | 20 | 0 | 0.0 | 0.0 | 0.00 | 8.20 | 8.20 | 73 | 1014.0 |
| 20260510024557 | 20 | 0 | 0.0 | 0.0 | 0.00 | 8.20 | 8.20 | 73 | 1014.1 |
| 20260510024101 | 20 | 0 | 0.0 | 0.0 | 0.00 | 8.20 | 8.20 | 73 | 1014.1 |
| 20260510023558 | 20 | 0 | 0.0 | 0.0 | 0.00 | 8.20 | 8.20 | 73 | 1014.0 |
| 20260510023103 | 20 | 0 | 0.0 | 0.0 | 0.00 | 8.20 | 8.20 | 73 | 1013.8 |
| 20260510022558 | 20 | 0 | 0.0 | 1.6 | 0.00 | 8.20 | 8.20 | 73 | 1013.6 |
| 20260510022058 | 20 | 0 | 0.0 | 4.8 | 0.00 | 8.20 | 8.20 | 73 | 1013.4 |
| 20260510021603 | 20 | 0 | 0.0 | 4.8 | 0.00 | 8.20 | 8.20 | 73 | 1013.2 |
| 20260510021100 | 20 | 0 | 0.0 | 4.8 | 0.00 | 8.20 | 8.20 | 73 | 1013.2 |
| 20260510020558 | 20 | 173 | 0.0 | 0.0 | 0.03 | 8.20 | 8.20 | 73 | 1012.8 |
| 20260510020100 | 20 | 0 | 0.0 | 0.0 | 0.03 | 8.20 | 8.20 | 73 | 1012.9 |
| 20260510015600 | 20 | 0 | 0.0 | 0.0 | 0.03 | 8.20 | 8.20 | 73 | 1012.8 |
| 20260510015117 | 20 | 0 | 0.0 | 0.0 | 0.03 | 8.20 | 8.20 | 73 | 1012.6 |
| 20260510014608 | 20 | 0 | 0.0 | 0.0 | 0.03 | 8.20 | 8.20 | 73 | 1012.5 |
| 20260510014058 | 20 | 0 | 0.0 | 0.0 | 0.03 | 8.20 | 8.20 | 73 | 1012.7 |
| 20260510013559 | 20 | 0 | 0.0 | 0.0 | 0.03 | 8.20 | 8.20 | 73 | 1012.9 |
| 20260510013058 | 20 | 0 | 0.0 | 3.2 | 0.03 | 8.20 | 8.20 | 73 | 1013.1 |
| 20260510012558 | 20 | 0 | 0.0 | 3.2 | 0.03 | 8.20 | 8.20 | 73 | 1013.3 |
| 20260510012059 | 20 | 0 | 0.0 | 3.2 | 0.03 | 8.20 | 8.20 | 73 | 1013.3 |
| 20260510011601 | 20 | 0 | 0.0 | 3.2 | 0.03 | 8.20 | 8.20 | 73 | 1013.1 |
| 20260510011101 | 20 | 0 | 0.0 | 3.2 | 0.03 | 8.20 | 8.20 | 73 | 1012.8 |
| 20260510010558 | 20 | 155 | 0.0 | 3.2 | 0.03 | 8.18 | 8.18 | 73 | 1012.8 |
| 20260510005558 | 20 | 0 | 0.0 | 0.0 | 0.03 | 8.26 | 8.18 | 73 | 1012.8 |
| 20260510005057 | 20 | 0 | 0.0 | 0.0 | 0.05 | 8.26 | 8.18 | 73 | 1012.8 |
| 20260510004559 | 20 | 0 | 0.0 | 0.0 | 0.05 | 8.26 | 8.18 | 73 | 1012.7 |
| 20260510004058 | 20 | 0 | 0.0 | 4.8 | 0.08 | 8.26 | 8.18 | 73 | 1012.7 |
| 20260510003558 | 20 | 0 | 0.0 | 6.4 | 0.08 | 8.26 | 8.18 | 73 | 1012.7 |
| 20260510003103 | 20 | 191 | 0.0 | 6.4 | 0.08 | 8.26 | 8.18 | 73 | 1012.8 |
| 20260510002558 | 20 | 0 | 0.0 | 4.8 | 0.10 | 8.26 | 8.18 | 73 | 1012.7 |
| 20260510002057 | 20 | 0 | 0.0 | 3.2 | 0.10 | 8.26 | 8.18 | 73 | 1013.0 |
| 20260510001557 | 20 | 129 | 0.0 | 3.2 | 0.13 | 8.26 | 8.18 | 73 | 1012.5 |
| 20260510001058 | 20 | 0 | 0.0 | 3.2 | 0.13 | 8.26 | 8.18 | 73 | 1012.9 |
| 20260510000601 | 20 | 0 | 0.0 | 1.6 | 0.10 | 8.23 | 8.15 | 73 | 1012.8 |
| 20260510000100 | 20 | 0 | 0.0 | 1.6 | 0.10 | 8.23 | 8.15 | 73 | 1013.0 |
| 20260509235600 | 20 | 0 | 0.0 | 1.6 | 0.10 | 8.36 | 8.15 | 73 | 1013.0 |
| 20260509235058 | 20 | 0 | 0.0 | 1.6 | 0.08 | 8.33 | 8.13 | 73 | 1013.1 |
| 20260509234607 | 20 | 0 | 0.0 | 0.0 | 0.08 | 8.33 | 8.13 | 73 | 1013.2 |
| 20260509234057 | 20 | 0 | 0.0 | 0.0 | 0.05 | 8.31 | 8.10 | 73 | 1013.2 |
| 20260509233601 | 20 | 0 | 0.0 | 0.0 | 0.05 | 8.31 | 8.10 | 73 | 1013.3 |
| 20260509233059 | 20 | 0 | 0.0 | 0.0 | 0.05 | 8.31 | 8.10 | 73 | 1013.5 |
| 20260509232558 | 20 | 0 | 0.0 | 0.0 | 0.03 | 8.28 | 8.08 | 73 | 1013.4 |
| 20260509232058 | 20 | 0 | 0.0 | 0.0 | 0.05 | 8.28 | 8.08 | 73 | 1013.2 |
| 20260509231557 | 20 | 0 | 0.0 | 0.0 | 0.03 | 8.26 | 8.05 | 73 | 1013.0 |
| 20260509231057 | 20 | 0 | 0.0 | 0.0 | 0.03 | 8.26 | 8.05 | 73 | 1013.2 |
| 20260509230558 | 20 | 0 | 0.0 | 0.0 | 0.03 | 8.26 | 8.05 | 73 | 1013.2 |
| 20260509230108 | 20 | 0 | 0.0 | 0.0 | 0.05 | 8.26 | 8.05 | 73 | 1012.9 |
| 20260509225557 | 20 | 0 | 0.0 | 0.0 | 0.05 | 8.31 | 8.05 | 73 | 1012.4 |
| 20260509225057 | 20 | 0 | 0.0 | 0.0 | 0.05 | 8.31 | 8.05 | 73 | 1012.4 |
| 20260509224635 | 20 | 0 | 0.0 | 0.0 | 0.05 | 8.31 | 8.05 | 73 | 1012.0 |
| 20260509224058 | 20 | 0 | 0.0 | 1.6 | 0.05 | 8.31 | 8.05 | 73 | 1011.9 |
| 20260509223558 | 20 | 0 | 0.0 | 1.6 | 0.05 | 8.31 | 8.05 | 73 | 1011.8 |
| 20260509223100 | 20 | 0 | 0.0 | 4.8 | 0.05 | 8.31 | 8.05 | 73 | 1011.9 |
| 20260509222559 | 20 | 0 | 0.0 | 4.8 | 0.05 | 8.31 | 8.05 | 73 | 1011.8 |
| 20260509222057 | 20 | 0 | 0.0 | 4.8 | 0.03 | 8.28 | 8.03 | 73 | 1012.0 |
| 20260509221558 | 20 | 145 | 0.0 | 4.8 | 0.03 | 8.28 | 8.03 | 73 | 1012.3 |
| 20260509221059 | 20 | 172 | 0.0 | 3.2 | 0.03 | 8.28 | 8.03 | 73 | 1012.5 |
| 20260509220557 | 20 | 0 | 0.0 | 3.2 | 0.03 | 8.28 | 8.03 | 73 | 1012.9 |
| 20260509220103 | 20 | 0 | 0.0 | 1.6 | 0.00 | 8.26 | 8.00 | 73 | 1012.8 |
| 20260509215558 | 20 | 0 | 0.0 | 0.0 | 0.00 | 8.97 | 8.00 | 73 | 1012.8 |
| 20260509215058 | 20 | 0 | 0.0 | 0.0 | 0.00 | 8.97 | 8.00 | 73 | 1012.9 |
| 20260509214558 | 20 | 0 | 0.0 | 1.6 | 0.00 | 8.97 | 8.00 | 73 | 1012.8 |
| 20260509214058 | 20 | 0 | 0.0 | 3.2 | 0.00 | 8.97 | 8.00 | 73 | 1012.5 |
| 20260509213558 | 20 | 0 | 0.0 | 4.8 | 0.00 | 8.97 | 8.00 | 73 | 1012.3 |
| 20260509213106 | 20 | 0 | 0.0 | 9.7 | 0.03 | 8.97 | 8.00 | 73 | 1011.9 |
| 20260509212557 | 20 | 178 | 0.0 | 9.7 | 0.03 | 8.97 | 8.00 | 73 | 1011.4 |
| 20260509212057 | 20 | 148 | 3.2 | 9.7 | 0.03 | 8.97 | 8.00 | 73 | 1011.2 |
| 20260509211604 | 20 | 0 | 0.0 | 4.8 | 0.05 | 8.97 | 8.00 | 73 | 1011.0 |
| 20260509211057 | 20 | 0 | 0.0 | 1.6 | 0.08 | 8.97 | 8.00 | 73 | 1011.3 |
| 20260509210558 | 20 | 0 | 0.0 | 6.4 | 0.08 | 8.97 | 8.00 | 73 | 1011.2 |
| 20260509205559 | 20 | 0 | 0.0 | 1.6 | 0.13 | 10.08 | 8.00 | 73 | 1011.2 |
| 20260509205101 | 20 | 0 | 0.0 | 3.2 | 0.15 | 10.08 | 8.00 | 73 | 1011.4 |
| 20260509204604 | 20 | 0 | 0.0 | 3.2 | 0.18 | 10.08 | 8.00 | 73 | 1011.5 |
| 20260509204058 | 20 | 177 | 0.0 | 3.2 | 0.20 | 10.08 | 8.00 | 73 | 1011.8 |
| 20260509203557 | 20 | 0 | 0.0 | 1.6 | 0.23 | 10.08 | 8.00 | 73 | 1012.0 |
| 20260509203101 | 20 | 0 | 0.0 | 1.6 | 0.25 | 10.06 | 7.98 | 73 | 1012.6 |
| 20260509202558 | 19 | 0 | 0.0 | 3.2 | 0.28 | 10.06 | 7.98 | 73 | 1012.8 |
| 20260509202058 | 19 | 0 | 0.0 | 3.2 | 0.30 | 10.06 | 7.98 | 73 | 1012.9 |
| 20260509201556 | 19 | 0 | 0.0 | 3.2 | 0.33 | 10.03 | 7.95 | 73 | 1012.8 |
| 20260509201057 | 19 | 0 | 0.0 | 4.8 | 0.33 | 10.01 | 7.92 | 73 | 1012.6 |
| 20260509200557 | 19 | 0 | 0.0 | 4.8 | 0.36 | 10.01 | 7.92 | 73 | 1012.6 |
| 20260509200057 | 19 | 0 | 0.0 | 9.7 | 0.33 | 9.96 | 7.87 | 73 | 1012.5 |
| 20260509195558 | 19 | 180 | 0.0 | 9.7 | 0.36 | 9.98 | 7.85 | 73 | 1012.6 |
| 20260509195057 | 19 | 0 | 0.0 | 6.4 | 0.41 | 9.98 | 7.85 | 73 | 1012.7 |
| 20260509194558 | 19 | 150 | 0.0 | 6.4 | 0.41 | 9.96 | 7.82 | 73 | 1012.6 |
| 20260509194101 | 20 | 0 | 0.0 | 4.8 | 0.43 | 9.93 | 7.80 | 73 | 1012.6 |
| 20260509193557 | 20 | 0 | 0.0 | 4.8 | 0.43 | 9.91 | 7.77 | 73 | 1012.8 |
| 20260509193057 | 20 | 0 | 0.0 | 4.8 | 0.41 | 9.86 | 7.72 | 73 | 1013.4 |
| 20260509192557 | 20 | 0 | 0.0 | 3.2 | 0.36 | 9.80 | 7.67 | 73 | 1013.3 |
| 20260509192057 | 20 | 0 | 0.0 | 6.4 | 0.38 | 9.80 | 7.67 | 73 | 1013.2 |
| 20260509191609 | 20 | 0 | 0.0 | 8.0 | 0.36 | 9.75 | 7.62 | 73 | 1013.3 |
| 20260509191100 | 20 | 196 | 0.0 | 8.0 | 0.36 | 9.73 | 7.59 | 73 | 1013.3 |
| 20260509190557 | 20 | 184 | 1.6 | 4.8 | 0.36 | 9.70 | 7.57 | 73 | 1013.3 |
| 20260509190059 | 20 | 0 | 0.0 | 1.6 | 0.36 | 9.68 | 7.54 | 73 | 1013.2 |
| 20260509185558 | 20 | 0 | 0.0 | 1.6 | 0.33 | 9.63 | 7.49 | 73 | 1013.4 |
| 20260509185058 | 19 | 0 | 0.0 | 3.2 | 0.33 | 9.58 | 7.44 | 73 | 1013.3 |
| 20260509184558 | 19 | 0 | 0.0 | 3.2 | 0.36 | 9.55 | 7.42 | 73 | 1013.0 |
| 20260509184058 | 19 | 0 | 0.0 | 4.8 | 0.36 | 9.50 | 7.37 | 73 | 1013.2 |
| 20260509183557 | 19 | 0 | 0.0 | 4.8 | 0.36 | 9.47 | 7.34 | 73 | 1013.2 |
| 20260509183057 | 19 | 0 | 0.0 | 4.8 | 0.48 | 9.45 | 7.32 | 73 | 1013.0 |
| 20260509182559 | 19 | 0 | 0.0 | 6.4 | 0.51 | 9.45 | 7.32 | 73 | 1012.9 |
| 20260509182057 | 19 | 0 | 0.0 | 6.4 | 0.53 | 9.42 | 7.29 | 73 | 1012.6 |
| 20260509181604 | 19 | 0 | 1.6 | 4.8 | 0.53 | 9.40 | 7.26 | 73 | 1012.6 |
| 20260509181058 | 18 | 0 | 1.6 | 9.7 | 0.58 | 9.37 | 7.24 | 73 | 1012.7 |
| 20260509180558 | 18 | 0 | 0.0 | 11.3 | 0.79 | 9.35 | 7.21 | 73 | 1012.9 |
| 20260509180059 | 18 | 120 | 1.6 | 11.3 | 0.79 | 9.32 | 7.19 | 72 | 1013.2 |
| 20260509175558 | 18 | 116 | 1.6 | 6.4 | 0.79 | 9.30 | 7.16 | 73 | 1013.2 |
| 20260509175058 | 18 | 0 | 0.0 | 3.2 | 0.74 | 9.25 | 7.11 | 73 | 1013.6 |
| 20260509174604 | 18 | 0 | 0.0 | 4.8 | 0.71 | 9.19 | 7.06 | 73 | 1013.6 |
| 20260509174058 | 18 | 165 | 0.0 | 4.8 | 0.66 | 9.14 | 7.01 | 72 | 1013.6 |
| 20260509173557 | 18 | 111 | 3.2 | 6.4 | 0.66 | 9.12 | 6.99 | 72 | 1013.5 |
| 20260509173114 | 18 | 0 | 1.6 | 6.4 | 0.51 | 8.97 | 6.83 | 72 | 1014.2 |
| 20260509172557 | 18 | 256 | 1.6 | 8.0 | 0.51 | 8.94 | 6.81 | 72 | 1013.4 |
| 20260509172058 | 18 | 117 | 1.6 | 8.0 | 0.48 | 8.89 | 6.76 | 72 | 1012.7 |
| 20260509171605 | 18 | 0 | 1.6 | 6.4 | 0.48 | 8.86 | 6.73 | 72 | 1013.5 |
| 20260509171058 | 18 | 0 | 0.0 | 6.4 | 0.43 | 8.79 | 6.65 | 72 | 1014.1 |
| 20260509170600 | 18 | 0 | 0.0 | 6.4 | 0.23 | 8.56 | 6.43 | 72 | 1014.4 |
| 20260509170100 | 18 | 0 | 0.0 | 6.4 | 0.23 | 8.53 | 6.40 | 72 | 1013.8 |
| 20260509165557 | 18 | 0 | 0.0 | 9.7 | 0.23 | 8.51 | 6.38 | 72 | 1013.4 |
| 20260509165100 | 18 | 0 | 1.6 | 11.3 | 0.25 | 8.51 | 6.38 | 72 | 1013.3 |